[[{"header":{"parameterUnit":"m.s-1","parameterCategory":1,"la1":30.2991,"la2":30.254,"lo1":-89.0895,"lo2":-89.0444,"dy":0.0017,"dx":0.0017,"nx":28,"ny":28,"refTime":"2024-09-01T03:00:00:Z","depth":0,"parameterNumber":2,"parameterNumberName":"U-component_of_WINDS"},"data":[0,0,0,0,0,0,0,0,0,0,0,0,0,0,0,0,0,0,0,0,0,0,0,0,0,0,0,0,0,0,0,0,0,0,0,0,0,0,0,0,0,0,0,0,0,0,0,0,0,0,0,0,0,0,0,0,0,0,-1.1407,-1.1406,0,-1.1275,-1.1273,-1.1272,-1.1159,-1.1157,-1.1156,-1.1155,-1.1017,-1.1014,-1.1012,0,0,0,0,0,0,0,0,0,0,0,0,0,-1.1562,-1.156,-1.1408,-1.1406,-1.1404,-1.1275,-1.1273,-1.1271,-1.1159,-1.1157,-1.1156,-1.1155,-1.1018,-1.1015,-1.1012,0,0,0,0,0,0,0,0,0,0,0,0,0,-1.1469,-1.1559,-1.1408,-1.1333,-1.1325,-1.1275,-1.1273,-1.1271,-1.1159,-1.1157,-1.1156,-1.1154,-1.1019,-1.1015,-1.1011,-1.1025,0,0,-1.1,-1.0998,0,0,0,0,0,0,0,0,-1.1474,-1.1463,-1.1345,-1.1338,-1.1329,-1.1231,-1.1277,-1.1188,-1.116,-1.1222,-1.1155,-1.1153,-1.109,-1.108,-1.1059,-1.1019,-1.1013,-1.0999,-1.0997,-1.0995,-1.0994,0,0,0,0,0,0,0,-1.1481,-1.1468,-1.1355,-1.1344,-1.1334,-1.1305,-1.129,-1.126,-1.1168,-1.1216,-1.1208,-1.1194,-1.1085,-1.1063,-1.1055,-1.1011,-1.0999,-1.0996,-1.0994,-1.0992,-1.0975,-1.0977,0,0,0,0,0,0,-1.1499,-1.1474,-1.1359,-1.1351,-1.1398,-1.1304,-1.1287,-1.1265,-1.1168,-1.1151,-1.1196,-1.1189,-1.107,-1.1059,-1.105,-1.106,-1.0995,-1.0992,-1.099,-1.0974,-1.0976,-1.0978,0,0,0,0,0,0,-1.1503,-1.149,-1.1364,-1.141,-1.1392,-1.1303,-1.1279,-1.1263,-1.1241,-1.1152,-1.1135,-1.119,-1.1068,-1.1055,-1.1032,-1.1053,-1.099,-1.0987,-1.0972,-1.0974,-1.0977,-1.108,0,0,0,0,0,0,-1.1508,-1.1492,-1.1497,-1.1411,-1.139,-1.135,-1.128,-1.1262,-1.1235,-1.1225,-1.1143,-1.1127,-1.1066,-1.1039,-1.1029,-1.1047,-1.0984,-1.0969,-1.0973,-1.0976,-1.1075,-1.1086,-1.1096,0,0,0,0,0,-1.1514,-1.1531,-1.1498,-1.1484,-1.1394,-1.1352,-1.134,-1.1269,-1.1237,-1.1241,-1.1184,-1.113,-1.1053,-1.1037,-1.1025,-1.1043,-1.0968,-1.0972,-1.0976,-1.107,-1.1084,-1.1096,0,0,0,0,0,0,-1.162,-1.1518,-1.148,-1.147,-1.1421,-1.1333,-1.1335,-1.1287,-1.1245,-1.1237,-1.1151,-1.1133,-1.112,-1.1079,-1.1063,-1.1051,-1.1003,-1.1005,-1.1079,-1.1091,-1.1102,-1.1112,-1.0981,0,0,0,0,0,-1.1642,-1.1617,-1.1529,-1.1528,-1.1505,-1.1425,-1.1404,-1.1354,-1.1299,-1.1277,-1.1219,-1.1167,-1.1131,-1.1109,-1.1071,-1.1068,-1.1048,-1.1074,-1.1085,-1.1094,-1.1097,-1.1093,-1.1103,-1.0991,-1.0991,-1.0991,0,0,-1.1688,-1.1629,-1.1618,-1.1548,-1.1504,-1.1479,-1.1408,-1.1385,-1.1365,-1.1273,-1.1249,-1.1204,-1.114,-1.1128,-1.112,-1.1093,-1.1123,-1.11,-1.1108,-1.1105,-1.1098,-1.1109,-1.1118,-1.0994,-1.0994,-1.0993,0,0,-1.1758,-1.1711,-1.1706,-1.1663,-1.1598,-1.1544,-1.1543,-1.1463,-1.143,-1.1404,-1.1335,-1.131,-1.125,-1.1208,-1.1178,-1.1234,-1.1183,-1.1224,-1.128,-1.1277,-1.1286,-1.1293,-1.1313,-1.1321,-1.1227,-1.1227,-1.1227,0,-1.1823,-1.1783,-1.1709,-1.169,-1.1661,-1.1578,-1.1572,-1.1534,-1.1459,-1.1441,-1.1413,-1.1336,-1.1287,-1.1264,-1.1278,-1.1257,-1.1253,-1.1233,-1.1291,-1.1298,-1.1303,-1.1321,-1.1329,-1.1233,-1.1232,-1.1231,-1.1231,0,-1.1866,-1.1839,-1.1843,-1.1774,-1.1745,-1.1733,-1.1657,-1.1637,-1.159,-1.154,-1.1515,-1.1454,-1.1402,-1.1393,-1.1346,-1.1363,-1.1349,-1.1307,-1.1257,-1.1321,-1.1336,-1.1342,-1.1241,-1.1239,-1.1237,-1.1236,0,0,-1.1998,-1.1889,-1.1892,-1.186,-1.1782,-1.1759,-1.1743,-1.1694,-1.1678,-1.163,-1.1614,-1.1566,-1.1527,-1.1494,-1.1442,-1.1439,-1.1487,-1.1397,-1.1394,-1.1416,-1.1502,-1.1534,-1.1543,-1.1453,-1.1454,-1.1455,-1.1508,0,-1.2055,-1.2022,-1.1956,-1.1943,-1.1918,-1.184,-1.1825,-1.1776,-1.1729,-1.17,-1.1647,-1.1615,-1.1566,-1.1545,-1.1539,-1.1483,-1.1504,-1.1478,-1.1437,-1.1436,-1.1455,-1.1551,-1.1585,-1.1637,-1.1513,-1.1514,-1.1515,0,-1.2118,-1.2075,-1.2061,-1.1985,-1.1972,-1.1961,-1.191,-1.1884,-1.1826,-1.1792,-1.1756,-1.1699,-1.1678,-1.1633,-1.1601,-1.1586,-1.1565,-1.1535,-1.1535,-1.1528,-1.1479,-1.1547,-1.1652,-1.1661,-1.1523,-1.1523,-1.1522,0,-1.2216,-1.2155,-1.2138,-1.2113,-1.2025,-1.2019,-1.1981,-1.1922,-1.1897,-1.1852,-1.1835,-1.1789,-1.1763,-1.1729,-1.1661,-1.1634,-1.1637,-1.1586,-1.1608,-1.161,-1.1612,-1.1612,-1.1715,-1.1599,-1.1599,-1.1599,-1.1599,0,-1.2287,-1.2281,-1.2181,-1.2172,-1.2163,-1.2086,-1.208,-1.2035,-1.1983,-1.1962,-1.1891,-1.1874,-1.1785,-1.1757,-1.1704,-1.1687,-1.1676,-1.1647,-1.1633,-1.1653,-1.1657,-1.1638,-1.1633,-1.1601,-1.16,-1.16,-1.16,0,-1.2395,-1.2328,-1.2305,-1.2223,-1.2203,-1.22,-1.2129,-1.2117,-1.2066,-1.2041,-1.203,-1.195,-1.1914,-1.1843,-1.1786,-1.175,-1.1745,-1.172,-1.1765,-1.1756,-1.1782,-1.178,-1.1876,-1.1884,-1.1764,-1.1765,-1.1766,0,-1.2444,-1.2438,-1.2357,-1.2338,-1.2304,-1.2275,-1.2249,-1.2174,-1.215,-1.2084,-1.208,-1.2038,-1.2,-1.1945,-1.1881,-1.1837,-1.1811,-1.1848,-1.1804,-1.1825,-1.1812,-1.1813,-1.1812,-1.1857,-1.1859,-1.1861,-1.1862,0,-1.254,-1.2507,-1.2473,-1.2428,-1.2399,-1.236,-1.2316,-1.2305,-1.2219,-1.2196,-1.2158,-1.2129,-1.2072,-1.2031,-1.1979,-1.1939,-1.1886,-1.1876,-1.1879,-1.1899,-1.1926,-1.1912,-1.1791,-1.1874,-1.1873,-1.1872,-1.1871,-1.1871,-1.2619,-1.2611,-1.2552,-1.2517,-1.2476,-1.2438,-1.2422,-1.237,-1.2337,-1.2285,-1.2242,-1.2208,-1.2151,-1.2075,-1.2039,-1.2011,-1.1985,-1.1989,-1.199,-1.1992,-1.2001,-1.1931,-1.2001,-1.2,-1.2,-1.2,-1.1999,0,-1.2711,-1.267,-1.2638,-1.258,-1.2553,-1.2506,-1.2456,-1.2436,-1.2407,-1.2358,-1.2323,-1.228,-1.224,-1.2174,-1.2129,-1.2119,-1.2094,-1.211,-1.211,-1.2101,-1.2026,-1.2028,-1.2131,-1.2131,-1.2131,-1.2131,-1.2131,-1.2131,-1.2756,-1.2738,-1.2699,-1.2661,-1.2619,-1.2586,-1.2562,-1.2526,-1.2486,-1.2442,-1.2409,-1.2366,-1.2311,-1.2261,-1.2222,-1.2204,-1.219,-1.2214,-1.2188,-1.2119,-1.2107,-1.2095,-1.2097,-1.2212,-1.2212,-1.2265,-1.2266,-1.2266]},{"header":{"parameterUnit":"m.s-1","parameterCategory":1,"la1":30.2991,"la2":30.254,"lo1":-89.0895,"lo2":-89.0444,"dy":0.0017,"dx":0.0017,"nx":28,"ny":28,"refTime":"2024-09-01T03:00:00:Z","depth":0,"parameterNumber":3,"parameterNumberName":"V-component_of_WINDS"},"data":[0,0,0,0,0,0,0,0,0,0,0,0,0,0,0,0,0,0,0,0,0,0,0,0,0,0,0,0,0,0,0,0,0,0,0,0,0,0,0,0,0,0,0,0,0,0,0,0,0,0,0,0,0,0,0,0,0,0,1.0757,1.0757,0,1.078,1.078,1.078,1.08,1.08,1.08,1.0801,1.0823,1.0823,1.0824,0,0,0,0,0,0,0,0,0,0,0,0,0,1.0731,1.0732,1.0757,1.0757,1.0758,1.078,1.078,1.078,1.08,1.08,1.0801,1.0801,1.0823,1.0823,1.0824,0,0,0,0,0,0,0,0,0,0,0,0,0,1.0747,1.0732,1.0757,1.077,1.0772,1.078,1.078,1.078,1.08,1.08,1.0801,1.0801,1.0823,1.0823,1.0824,1.082,0,0,1.0825,1.0826,0,0,0,0,0,0,0,0,1.0746,1.0748,1.0768,1.0769,1.0771,1.0787,1.0779,1.0794,1.08,1.0789,1.0801,1.0801,1.0811,1.0812,1.0816,1.0821,1.0822,1.0825,1.0826,1.0826,1.0826,0,0,0,0,0,0,0,1.0745,1.0747,1.0766,1.0768,1.077,1.0775,1.0778,1.0782,1.0798,1.079,1.0792,1.0794,1.0812,1.0815,1.0816,1.0822,1.0825,1.0826,1.0826,1.0826,1.0827,1.0827,0,0,0,0,0,0,1.0742,1.0746,1.0765,1.0767,1.0759,1.0775,1.0778,1.0782,1.0798,1.08,1.0794,1.0795,1.0814,1.0816,1.0817,1.0815,1.0826,1.0826,1.0827,1.0827,1.0827,1.0827,0,0,0,0,0,0,1.0741,1.0743,1.0764,1.0757,1.076,1.0775,1.0779,1.0782,1.0786,1.08,1.0803,1.0794,1.0814,1.0816,1.082,1.0816,1.0827,1.0827,1.0828,1.0827,1.0827,1.081,0,0,0,0,0,0,1.074,1.0743,1.0742,1.0757,1.076,1.0766,1.0779,1.0782,1.0787,1.0788,1.0802,1.0804,1.0815,1.0819,1.082,1.0817,1.0828,1.0828,1.0828,1.0827,1.0811,1.0809,1.0807,0,0,0,0,0,1.0739,1.0736,1.0742,1.0744,1.0759,1.0766,1.0768,1.078,1.0786,1.0785,1.0795,1.0804,1.0816,1.0819,1.0821,1.0817,1.0829,1.0828,1.0827,1.0811,1.0809,1.0807,0,0,0,0,0,0,1.072,1.0738,1.0745,1.0746,1.0754,1.077,1.0769,1.0777,1.0784,1.0785,1.08,1.0803,1.0805,1.0811,1.0814,1.0815,1.0824,1.0823,1.0811,1.0809,1.0807,1.0806,1.0828,0,0,0,0,0,1.0715,1.072,1.0735,1.0735,1.0739,1.0753,1.0756,1.0765,1.0775,1.0778,1.0788,1.0797,1.0803,1.0806,1.0812,1.0812,1.0815,1.081,1.0809,1.0807,1.0807,1.0808,1.0806,1.0824,1.0824,1.0824,0,0,1.0707,1.0717,1.0719,1.0731,1.0739,1.0743,1.0756,1.076,1.0763,1.0779,1.0783,1.079,1.0801,1.0802,1.0803,1.0808,1.0802,1.0806,1.0805,1.0805,1.0807,1.0805,1.0804,1.0824,1.0824,1.0824,0,0,1.0693,1.0701,1.0702,1.071,1.0722,1.0731,1.0731,1.0745,1.0751,1.0755,1.0768,1.0772,1.0781,1.0789,1.0793,1.0784,1.0792,1.0785,1.0776,1.0777,1.0775,1.0774,1.0771,1.077,1.0785,1.0784,1.0784,0,1.0681,1.0688,1.0701,1.0705,1.071,1.0725,1.0726,1.0733,1.0746,1.0749,1.0754,1.0767,1.0775,1.0779,1.0776,1.078,1.0781,1.0784,1.0774,1.0773,1.0772,1.077,1.0768,1.0784,1.0784,1.0784,1.0784,0,1.0673,1.0677,1.0677,1.0689,1.0695,1.0697,1.0711,1.0714,1.0722,1.0732,1.0736,1.0746,1.0755,1.0757,1.0765,1.0762,1.0765,1.0772,1.078,1.0769,1.0767,1.0766,1.0782,1.0783,1.0783,1.0783,0,0,1.0647,1.0668,1.0667,1.0674,1.0688,1.0692,1.0695,1.0704,1.0707,1.0716,1.0719,1.0727,1.0734,1.074,1.0749,1.0749,1.0742,1.0756,1.0757,1.0754,1.074,1.0735,1.0734,1.0748,1.0747,1.0747,1.074,0,1.0636,1.0643,1.0655,1.0658,1.0663,1.0678,1.068,1.069,1.0698,1.0704,1.0713,1.0719,1.0727,1.0731,1.0732,1.0742,1.0739,1.0743,1.0751,1.0751,1.0748,1.0733,1.0727,1.0719,1.0739,1.0739,1.0739,0,1.0624,1.0633,1.0636,1.0651,1.0654,1.0656,1.0666,1.0671,1.0681,1.0688,1.0694,1.0705,1.0709,1.0717,1.0723,1.0725,1.0729,1.0735,1.0735,1.0736,1.0744,1.0734,1.0717,1.0716,1.0737,1.0737,1.0737,0,1.0606,1.0618,1.0622,1.0627,1.0644,1.0646,1.0653,1.0664,1.0669,1.0677,1.0681,1.069,1.0694,1.0701,1.0713,1.0718,1.0718,1.0727,1.0724,1.0724,1.0724,1.0724,1.0707,1.0726,1.0726,1.0726,1.0726,0,1.0593,1.0595,1.0614,1.0617,1.0619,1.0633,1.0635,1.0644,1.0654,1.0658,1.0671,1.0675,1.0691,1.0697,1.0706,1.071,1.0712,1.0718,1.072,1.0717,1.0716,1.072,1.0721,1.0725,1.0725,1.0725,1.0725,0,1.0573,1.0586,1.0592,1.0608,1.0612,1.0613,1.0627,1.063,1.0639,1.0645,1.0647,1.0662,1.067,1.0683,1.0693,1.07,1.0703,1.0707,1.0699,1.0701,1.0697,1.0698,1.0683,1.0682,1.07,1.07,1.07,0,1.0564,1.0566,1.0583,1.0587,1.0594,1.06,1.0605,1.062,1.0625,1.0638,1.0639,1.0648,1.0656,1.0667,1.0679,1.0687,1.0692,1.0687,1.0694,1.069,1.0693,1.0693,1.0693,1.0685,1.0685,1.0685,1.0684,0,1.0547,1.0554,1.0561,1.0571,1.0577,1.0585,1.0594,1.0597,1.0613,1.0619,1.0627,1.0633,1.0644,1.0653,1.0664,1.0671,1.0681,1.0682,1.0682,1.0679,1.0675,1.0677,1.0695,1.0682,1.0683,1.0683,1.0683,1.0683,1.0533,1.0535,1.0548,1.0556,1.0564,1.0572,1.0576,1.0587,1.0594,1.0605,1.0613,1.0621,1.0632,1.0647,1.0654,1.0661,1.0665,1.0665,1.0665,1.0665,1.0664,1.0673,1.0663,1.0663,1.0663,1.0663,1.0663,0,1.0517,1.0526,1.0533,1.0546,1.0552,1.0561,1.0571,1.0576,1.0583,1.0593,1.0601,1.061,1.0619,1.0632,1.0641,1.0644,1.0649,1.0646,1.0646,1.0648,1.0659,1.0658,1.0642,1.0642,1.0642,1.0642,1.0642,1.0642,1.0509,1.0515,1.0523,1.0532,1.0541,1.0549,1.0554,1.0562,1.0571,1.0581,1.0588,1.0597,1.0608,1.0619,1.0627,1.0631,1.0634,1.063,1.0635,1.0645,1.0647,1.0649,1.0649,1.0631,1.0631,1.0624,1.0624,1.0624]}]]